Starlink 2001

operational
NORAD ID: 47596 Int'l Des: 2021-009 Owner: SPXS Country: US Constellation: starlink
LEOCIRCULARSTARLINK_TYPE

Über Starlink 2001

Beschreibung wird geladen...

Live-Position

3D-Globus wird geladen...

Nächste Überflüge

Höhenverlauf

Altitude vs Time

uPlot chart will show altitude changes over time

Zweizeiliger Elementsatz

1 47596U 21009BA 26035.41893692 .00039377 00000-0 84515-3 0 9996
2 47596 53.0523 180.6599 0002316 153.5815 206.5308 15.44346985275646
Epoch: 4. Feb. 2026 • Age: 9 hours

Aktueller Status

Höhe 436.8 km
Geschwindigkeit 7.65 km/s
Subsatellitenpunkt -17.11°S, 43.01°W
Startdatum 4. Feb. 2021
Alter 4.9 years
Typ internet

Technische Details

Klassifizierung Payload
Masse 260.00 kg
Trockenmasse 248.00 kg
Gesamtmasse 260.00 kg
Länge 0.20 m
Durchmesser 2.80 m
Spannweite 9.00 m
Form Box + pan
Hersteller SPXS
Bus-Typ Starlink
Phasenstatus In Orbit
Besitzer/Staat SPXS/US

Große Konstellationen

Loading constellations...